Location: Unspecified
(42.9300°N, 71.1866°W)
Time: 11:28:00
(UTC-04:00)

Cosmos 2058 - Visible Passes

Search period start: 16 September 2014 00:00
Search period end: 26 September 2014 00:00
Orbit: 569 x 595 km, 82.5° (Epoch: 15 September)

Date Brightness Start Highest point End Pass type
(mag) Time Alt. Az. Time Alt. Az. Time Alt. Az.
16 Sep 3.9 21:20:51 10° N 21:23:42 43° NNW 21:23:42 43° NNW visible
17 Sep 4.9 19:51:30 10° NE 19:53:15 12° ENE 19:53:16 12° ENE visible
17 Sep 4.0 21:26:39 10° NNW 21:29:40 42° NW 21:29:40 42° NW visible
18 Sep 4.5 19:56:24 10° NNE 19:59:09 17° ENE 19:59:16 17° ENE visible
18 Sep 4.4 21:32:32 10° NNW 21:35:40 36° WNW 21:35:40 36° WNW visible
19 Sep 4.1 20:01:40 10° NNE 20:05:01 23° ENE 20:05:18 23° E visible
19 Sep 4.8 21:38:31 10° NNW 21:41:43 28° W 21:41:43 28° W visible
20 Sep 3.7 20:07:05 10° NNE 20:10:51 32° ENE 20:11:24 30° E visible
20 Sep 5.2 21:44:38 10° NW 21:47:43 20° W 21:47:48 20° W visible
21 Sep 3.2 20:12:38 10° N 20:16:39 44° ENE 20:17:32 38° ESE visible
21 Sep 5.6 21:51:00 10° NW 21:53:19 15° W 21:53:57 14° W visible
22 Sep 2.8 20:18:15 10° N 20:22:24 64° E 20:23:45 40° SE visible
22 Sep 6.0 21:58:15 10° WNW 21:58:54 10° W 21:59:33 10° W visible
23 Sep 2.8 20:23:57 10° N 20:28:09 89° W 20:30:03 32° S visible
24 Sep 3.3 20:29:42 10° NNW 20:33:51 62° W 20:36:29 21° S visible
25 Sep 4.6 18:59:35 10° NNE 19:02:12 16° ENE 19:04:50 10° ESE visible
25 Sep 4.1 20:35:33 10° NNW 20:39:31 43° W 20:43:03 13° SSW visible
